RH
92 91 90 89 91 91 91 89 88 91 86 81 77 77 79 81 86 88 94 90 73 77 75 63 58 68 78 81 70 62 73 78 92 89 91 91 96 88 89 80 85 90 97 96 87 92 83 74 85 70 42 81 84 88
93 92 91 90 91 92 92 91 90 90 91 85 81 78 77 78 85 80 95 85 80 84 88 74 66 70 58 60 68 82 74 83 87 88 94 95 97 95 86 80 79 82 72 72 80 74 58 70 76 71 69 73 87 87
93 94 93 92 92 92 92 92 91 91 93 90 83 79 76 76 79 86 87 92 82 93 89 83 80 78 78 74 64 63 82 85 90 90 94 95 98 93 94 93 84 73 76 76 67 64 68 57 56 67 75 77 76 83
93 94 94 94 92 92 93 93 93 92 92 92 86 80 77 77 81 86 92 93 81 88 93 84 73 81 82 78 76 70 76 89 90 94 94 96 95 85 90 81 84 64 75 78 80 59 49 53 64 60 61 79 80 82
93 94 95 95 94 93 93 94 94 94 93 92 91 85 82 82 82 94 92 86 78 87 95 92 77 83 85 81 82 84 84 88 94 93 96 95 93 94 94 97 99 80 72 66 57 48 48 49 57 66 72 74 82 85
93 94 94 95 95 94 94 94 95 96 95 94 93 90 85 85 89 95 99 97 87 76 89 98 77 90 89 88 88 89 89 91 91 91 90 92 88 89 96 94 71 79 72 61 52 64 59 57 62 65 67 67 76 87
94 95 95 95 95 95 95 96 96 96 96 96 96 94 89 88 95 97 89 78 80 72 87 93 76 83 84 89 95 96 94 95 91 92 98 95 93 94 98 97 57 68 69 71 71 79 68 66 64 59 64 68 76 85
95 95 95 95 95 96 96 96 97 97 97 96 97 95 92 88 88 96 84 84 74 78 83 95 83 72 87 95 97 96 98 98 97 96 96 98 94 98 98 76 64 60 65 64 62 69 59 58 70 62 67 77 83 91
96 95 95 95 95 95 96 96 97 98 97 97 98 93 97 98 100 96 85 85 89 78 92 95 94 89 88 95 96 98 96 97 92 99 98 96 94 97 70 67 63 64 57 58 65 69 70 70 63 62 68 70 85 78
96 96 96 95 95 95 96 97 98 98 98 97 95 98 100 99 90 87 98 99 100 98 98 98 78 87 90 96 95 94 94 87 99 88 95 98 90 72 66 71 66 65 72 72 72 62 73 68 70 69 69 65 68 71
94 96 96 96 96 96 96 97 98 98 95 99 100 100 100 91 95 99 100 99 98 99 97 97 83 94 84 91 92 88 97 92 100 84 96 97 96 87 76 75 71 68 69 68 70 66 70 71 72 73 71 72 76 81
89 92 94 96 96 96 96 97 98 95 97 92 94 95 98 100 100 99 98 99 99 95 99 98 96 86 91 83 90 97 96 96 99 90 97 99 77 74 66 61 60 64 69 72 73 74 80 85 85 82 77 74 77 83
85 85 90 93 96 96 96 97 97 92 88 97 97 100 100 99 99 98 98 98 99 98 98 97 98 88 94 89 93 96 100 97 90 98 93 78 71 67 68 67 65 73 72 77 79 83 86 89 89 90 90 88 89 91
82 84 85 85 88 94 96 98 97 90 95 99 99 98 98 99 97 93 93 91 90 97 95 88 99 94 95 97 95 100 89 93 100 100 88 73 78 66 68 70 72 60 66 70 76 83 87 89 90 90 92 92 94 94
84 85 86 87 87 88 94 97 94 93 98 100 100 98 98 89 97 96 97 96 99 87 86 94 96 91 99 97 94 94 100 100 92 81 83 84 68 64 67 70 72 70 85 90 94 96 94 93 94 94 92 93 95 96
79 84 83 80 85 88 88 96 96 94 100 100 99 100 98 97 99 99 97 100 96 82 91 93 97 98 97 96 99 98 96 94 83 92 87 93 86 77 79 69 66 66 72 80 84 91 90 91 92 92 96 96 95 97
80 93 81 85 82 83 86 99 99 100 99 99 98 97 91 95 90 92 85 92 77 81 97 98 98 93 95 98 99 93 93 86 90 86 87 85 75 74 81 86 83 81 84 85 83 87 89 90 96 97 95 88 95 95
90 84 77 79 85 89 97 100 100 99 98 99 99 96 92 87 90 93 95 85 82 92 97 97 96 97 96 95 96 89 88 85 80 76 82 80 82 83 83 78 77 80 80 85 89 90 97 97 95 92 93 95 97 97
83 88 80 80 88 98 100 100 100 98 96 99 99 98 91 88 86 79 85 80 81 90 96 98 98 96 94 91 84 85 90 85 66 63 65 75 82 82 81 85 84 86 85 87 92 88 90 91 88 94 95 98 97 97
76 77 80 82 87 100 100 99 100 99 98 96 99 98 97 97 84 84 86 82 95 99 99 98 90 80 80 76 76 72 71 66 63 63 62 71 72 83 83 77 73 74 79 84 90 84 99 97 95 94 94 95 98 95
79 85 80 88 100 100 100 100 98 98 99 98 98 94 97 96 92 94 94 90 99 98 93 75 64 57 66 69 69 70 70 60 58 53 62 72 65 71 75 81 82 86 89 87 86 84 82 92 82 95 97 92 93 93
91 72 99 97 100 100 100 98 98 99 99 98 98 94 98 98 98 94 92 98 95 84 78 64 63 63 77 71 73 77 68 68 64 61 65 69 89 89 86 80 94 87 88 85 84 83 80 81 89 95 95 93 89 98
82 89 100 100 100 99 91 99 99 98 97 98 99 98 98 98 96 98 98 97 82 66 70 82 81 75 69 64 69 80 79 74 73 73 78 76 72 76 79 85 89 88 85 83 89 86 86 80 93 92 97 93 96 97
89 100 99 98 98 97 98 98 98 98 98 98 98 97 97 98 98 98 96 86 71 88 79 81 80 77 83 85 80 75 75 77 73 84 88 86 83 82 88 82 84 85 80 79 92 92 93 94 87 94 96 96 95 97
99 97 99 98 99 98 97 98 98 98 97 97 97 97 97 98 97 97 97 90 92 82 81 79 79 76 79 74 66 68 73 76 79 81 80 87 80 84 95 96 92 88 93 93 93 94 91 95 95 96 94 95 96 96
98 86 97 93 99 97 93 97 96 96 98 99 95 96 97 97 97 93 93 90 90 85 78 76 75 76 74 71 72 76 77 90 85 85 85 90 87 86 88 92 91 92 91 85 88 94 93 96 95 94 93 92 92 95
100 89 96 95 94 95 97 98 97 97 96 96 97 97 97 96 95 88 94 90 84 73 72 71 72 76 76 78 81 84 94 90 87 88 95 91 85 85 85 88 88 86 92 92 93 94 94 94 92 92 90 90 93 92
95 92 93 90 99 95 96 96 98 98 93 92 88 96 95 91 86 89 88 96 96 91 92 97 96 86 89 92 94 98 100 100 100 100 100 100 100 97 95 91 96 84 97 94 93 94 95 94 94 92 94 94 93 95
96 98 94 100 98 98 95 95 96 92 89 87 88 91 92 93 95 96 98 94 94 92 96 94 98 100 100 100 100 100 100 99 99 99 100 94 99 92 97 96 95 98 99 97 87 90 97 95 95 94 92 93 93 97
99 89 86 96 96 95 91 94 96 97 98 96 97 97 97 97 96 94 94 95 96 91 89 91 93 95 93 95 96 100 100 99 97 92 89 90 91 96 98 99 99 99 100 100 99 98 86 89 92 95 97 98 97 97
90 99 98 93 93 95 97 97 98 97 97 97 96 98 97 96 94 95 93 91 92 93 91 90 94 98 94 96 96 98 95 98 99 97 95 99 100 100 99 99 99 99 99 99 98 97 97 97 98 97 97 97 97 96
98 87 86 98 96 97 99 97 96 96 96 96 96 96 96 96 93 90 92 94 95 93 92 94 94 89 94 97 98 100 78 98 99 98 98 99 99 97 98 98 99 100 98 98 98 97 98 97 96 96 96 96 96 96
96 96 96 96 98 97 96 96 96 96 96 96 96 95 96 94 87 90 91 96 97 96 95 95 97 97 98 98 97 99 91 97 99 90 89 89 91 95 99 99 99 98 98 97 97 98 97 97 96 96 96 96 96 96
Wind_Speed
17 17 16 15 15 14 13 13 11 11 11 9 8 6 5 4 6 3 0 2 3 2 5 7 5 4 2 2 3 3 3 2 2 0 2 2 2 3 2 4 6 7 7 6 5 5 10 6 5 6 5 1 3 4
17 19 18 16 15 15 14 14 13 11 13 12 11 9 7 6 7 5 1 2 3 2 5 2 5 3 5 6 5 1 4 3 4 2 1 1 3 1 3 4 1 4 7 5 10 9 6 6 5 4 2 3 4 4
18 18 19 19 17 17 16 15 14 13 14 15 14 13 10 8 6 8 2 4 2 2 5 2 6 3 3 5 3 4 2 2 1 2 3 1 4 4 4 7 3 6 4 5 2 3 8 12 10 7 6 8 5 6
18 18 19 20 18 17 17 16 16 15 15 16 16 15 12 10 6 9 3 3 3 2 2 5 1 2 0 3 4 3 5 3 3 2 2 2 3 4 4 4 5 6 6 5 8 11 10 6 7 9 9 6 7 5
19 19 19 19 19 19 18 17 17 16 16 17 16 15 13 10 8 4 2 4 3 4 3 5 1 1 1 3 6 5 5 4 2 1 2 5 3 2 2 2 6 7 9 7 9 7 6 8 3 3 4 5 9 8
21 20 20 19 19 19 19 18 17 18 17 16 16 16 15 12 10 2 3 2 5 4 0 4 1 2 2 4 6 5 4 2 2 3 4 4 3 3 3 6 9 10 6 8 6 4 6 11 9 5 7 7 7 9
21 20 19 19 19 19 19 19 18 18 19 17 16 17 16 14 5 3 3 1 8 3 1 5 3 2 4 3 2 2 2 1 3 3 4 2 3 5 4 7 7 9 11 8 9 1 8 7 8 5 5 7 6 7
21 19 19 19 19 18 19 19 18 18 19 18 17 18 16 13 3 3 2 10 5 3 1 3 4 1 5 3 2 1 3 1 3 3 1 3 1 3 10 13 6 6 5 8 9 9 10 9 8 11 6 5 7 8
19 18 18 18 18 18 17 18 17 18 20 18 15 18 5 2 3 1 12 9 2 3 4 4 4 4 3 2 2 1 1 2 2 3 4 3 4 13 13 7 8 8 8 4 7 8 9 10 13 11 8 8 9 11
17 18 18 18 17 17 16 16 17 19 19 27 8 3 3 3 22 12 3 3 3 4 4 6 3 4 5 3 3 3 2 3 4 5 3 5 9 16 18 10 7 9 8 5 5 8 2 7 7 8 9 9 9 11
15 16 17 17 16 16 16 15 16 17 24 2 5 4 3 8 3 1 4 5 6 5 7 5 12 6 4 4 4 3 3 3 3 4 4 5 8 8 7 8 9 9 7 8 8 8 7 8 10 10 11 9 9 10
15 16 16 16 16 15 15 15 18 13 5 7 10 7 3 2 3 6 6 5 7 9 6 6 4 3 3 3 3 3 4 3 7 3 3 7 9 8 5 6 6 6 7 7 7 8 8 8 9 9 9 9 8 9
13 14 15 16 16 15 15 15 22 25 22 4 4 5 5 5 8 11 12 7 6 6 6 5 5 5 3 1 3 3 5 7 2 4 7 10 4 4 7 5 4 5 6 5 6 6 7 6 6 6 9 7 8 7
15 16 16 14 14 16 15 16 25 22 5 5 8 9 9 8 10 8 6 6 5 5 11 8 4 4 3 5 4 6 5 3 5 5 11 5 8 9 7 4 4 4 8 8 6 5 6 6 7 7 8 7 6 7
15 16 17 16 15 15 16 15 35 8 5 6 7 10 13 6 2 3 3 4 1 8 11 5 3 2 3 4 5 3 5 7 8 9 5 5 6 6 7 6 7 7 5 6 4 4 5 6 5 7 8 6 6 6
16 16 8 15 18 20 18 13 17 7 6 6 7 5 3 5 3 4 4 5 4 10 4 3 5 4 6 5 6 11 7 10 6 6 6 1 3 6 5 6 7 6 5 6 6 5 6 6 7 7 6 4 5 5
14 5 5 9 20 18 17 5 6 6 7 8 7 7 7 3 9 7 7 8 10 11 5 4 9 11 4 4 7 8 9 5 5 5 5 7 8 9 8 5 5 6 6 7 6 6 7 5 4 4 6 4 5 6
8 8 15 14 11 8 1 1 5 6 8 6 6 9 11 3 7 6 4 13 10 7 7 7 4 6 10 10 7 6 8 6 5 5 3 5 7 7 7 8 8 8 7 7 7 6 3 4 6 8 5 4 4 4
7 5 12 14 9 5 3 3 3 5 8 3 3 2 6 4 4 7 10 16 6 4 7 6 6 9 9 5 5 5 4 5 5 5 6 7 6 7 7 6 6 6 8 7 5 6 6 8 8 4 4 3 4 3
16 15 14 16 12 3 3 4 2 4 5 5 1 5 4 4 6 8 11 15 10 6 7 9 13 8 6 5 6 5 6 6 5 3 4 5 6 7 8 9 9 9 7 6 6 9 3 5 5 6 6 7 5 6
10 7 11 4 2 4 4 3 4 5 2 4 3 6 3 3 5 10 9 12 9 7 11 17 15 13 9 5 5 6 6 6 8 8 6 5 5 8 8 7 9 5 5 5 6 7 9 9 9 4 5 7 7 6
4 4 0 2 4 5 5 6 4 2 3 3 4 6 4 6 5 9 8 10 8 14 14 16 13 14 7 12 10 11 10 10 10 8 11 5 3 3 5 7 4 7 7 9 8 8 9 8 6 6 6 7 8 5
5 3 3 4 6 6 9 6 6 6 6 5 5 6 4 4 5 9 7 7 10 12 9 6 8 7 13 14 7 7 10 12 9 9 7 8 8 7 7 6 7 7 9 8 6 8 8 10 8 7 5 5 5 6
7 4 6 6 10 7 1 4 3 4 4 5 6 6 5 5 6 6 7 8 14 4 7 10 7 8 6 7 12 12 10 8 9 5 5 6 7 8 8 9 7 9 9 6 4 6 6 5 9 6 6 7 8 9
5 9 8 9 5 6 6 4 5 4 7 7 5 3 4 4 5 6 6 6 5 8 9 11 14 16 16 17 14 13 11 11 10 8 8 7 9 6 4 4 7 8 4 6 7 8 9 6 7 8 9 10 11 11
11 10 13 8 5 7 9 8 9 8 4 4 7 3 4 5 5 11 7 6 7 9 13 15 16 15 16 15 12 10 9 6 6 8 6 8 10 9 8 6 6 5 8 10 8 7 8 6 8 10 11 13 18 13
9 9 5 2 3 3 2 2 1 4 8 9 5 5 5 6 10 7 3 4 6 7 10 10 10 11 11 10 8 6 3 7 8 5 2 5 7 8 9 8 10 6 7 8 7 8 8 8 9 9 11 10 11 12
8 6 11 6 4 4 4 4 6 9 7 5 6 9 9 11 9 5 5 2 0 1 1 1 2 5 5 4 3 4 2 3 4 2 1 3 4 4 6 7 3 6 4 6 7 6 7 7 8 9 11 11 8 8
8 4 6 7 5 5 7 6 6 5 4 7 8 7 7 4 2 2 1 1 1 2 2 4 2 2 3 3 1 1 3 6 8 7 7 6 2 5 5 5 4 2 3 4 13 11 9 8 8 8 10 8 7 8
6 8 9 7 9 10 7 6 4 4 2 3 3 2 2 2 2 1 1 1 2 5 3 1 4 6 6 6 4 3 4 5 5 5 6 6 6 3 3 4 4 3 3 3 4 3 12 10 9 7 6 6 6 8
9 5 3 6 7 5 5 2 2 2 2 3 2 4 1 3 4 3 4 3 2 1 2 3 2 2 4 5 5 4 3 4 8 10 7 2 2 3 2 3 3 3 3 4 4 5 6 6 6 6 8 9 11 11
3 12 11 7 5 2 1 4 3 3 2 3 3 1 1 1 4 3 3 4 3 5 9 5 5 6 6 2 0 1 3 1 3 4 6 5 5 5 4 3 3 4 4 5 5 6 7 7 8 9 9 11 11 11
2 1 2 4 4 5 4 4 5 3 2 2 2 1 2 3 7 2 1 1 3 4 4 4 3 2 3 3 4 4 6 3 7 11 13 13 11 8 4 3 3 4 4 5 5 5 8 11 9 10 10 11 11 10
Wind_Direction
261 260 261 260 252 251 240 236 232 220 200 213 230 243 254 271 200 122 248 160 118 216 267 191 205 156 109 144 167 248 33 353 44 137 179 243 215 249 314 241 188 178 156 198 185 225 275 159 87 179 229 248 189 210
256 256 256 257 254 250 241 229 224 224 199 201 213 229 233 237 201 164 175 182 142 169 248 239 244 233 189 184 145 75 179 196 214 114 200 268 263 219 190 271 356 263 196 190 193 219 230 209 244 242 187 212 233 203
258 257 253 253 253 248 244 231 219 221 207 200 209 213 220 229 234 186 174 147 102 359 297 9 241 261 142 187 161 142 258 207 188 169 163 204 249 137 206 238 241 238 173 231 339 281 239 251 260 256 236 229 199 220
257 255 252 249 251 249 242 233 219 214 217 204 207 212 213 215 215 174 187 168 114 127 268 277 87 266 12 149 136 139 141 83 104 108 182 208 224 161 234 262 221 211 155 199 263 286 281 264 235 261 271 245 247 214
260 258 253 245 246 247 243 234 221 211 217 213 203 205 205 203 195 176 219 196 165 146 249 279 309 52 8 159 139 126 131 132 144 168 174 227 227 173 223 306 242 187 196 176 223 226 204 266 253 276 272 235 229 221
260 257 253 247 244 246 244 236 224 209 210 210 200 198 194 183 136 96 280 209 157 172 216 293 296 178 103 121 133 125 133 116 133 172 218 249 258 164 255 248 250 216 215 189 226 163 218 258 266 237 240 241 239 214
258 257 255 251 246 241 244 240 227 211 204 202 197 193 182 170 155 189 213 276 148 125 198 294 265 171 142 106 30 83 70 142 150 227 231 225 267 186 239 241 240 220 225 240 243 227 278 243 249 299 267 278 272 237
257 255 255 253 248 243 242 240 228 212 201 192 191 180 163 175 197 263 187 139 117 103 126 248 261 282 177 154 131 184 134 140 203 245 272 208 211 212 251 231 212 211 242 264 261 219 244 273 291 274 262 273 252 223
254 255 255 254 252 249 244 239 224 207 194 181 160 132 113 178 207 205 115 121 82 173 222 187 211 235 161 138 118 135 153 191 151 230 238 146 213 226 234 193 203 209 204 253 278 270 264 247 263 271 264 258 243 256
256 255 253 254 254 251 246 243 224 198 178 132 114 142 193 203 119 117 73 147 194 221 235 228 174 207 143 151 160 124 195 224 229 229 133 223 252 263 255 230 212 222 215 216 276 297 268 274 262 274 259 262 254 255
273 264 257 252 251 252 247 233 217 177 136 102 136 136 88 112 102 114 213 200 181 228 207 204 196 140 208 140 165 197 176 187 256 246 204 246 260 248 228 218 232 226 209 223 223 256 258 257 275 282 286 261 254 254
289 284 272 259 252 247 245 234 200 154 149 131 106 90 95 126 173 199 204 205 207 224 186 167 170 118 154 150 121 182 173 154 248 150 218 255 248 233 225 206 201 192 204 228 228 243 251 249 252 260 266 267 255 251
294 298 294 279 262 252 241 228 191 130 118 94 91 137 167 170 209 207 195 203 201 191 172 163 135 131 133 151 102 168 176 219 95 212 235 236 256 260 227 213 251 223 218 217 240 236 257 265 271 249 270 262 265 257
290 290 290 294 291 270 249 227 169 149 105 146 160 175 203 194 238 195 173 177 203 133 143 142 117 136 146 154 147 192 193 134 219 229 238 243 217 222 209 218 172 221 216 239 259 268 276 284 290 287 273 274 275 258
286 290 288 286 277 271 254 240 168 165 137 186 182 198 210 213 163 191 136 108 82 146 139 106 80 110 165 167 185 128 182 230 216 227 224 240 225 201 193 202 207 229 226 240 239 250 266 273 279 287 280 288 279 270
284 297 262 259 256 253 249 231 183 175 157 189 216 199 168 163 195 167 162 138 174 150 118 86 143 183 204 197 172 213 182 217 223 216 232 179 226 195 205 203 216 224 228 256 261 252 269 273 270 269 278 274 270 245
273 224 253 325 320 309 287 248 158 212 208 197 206 211 192 156 184 180 170 154 155 156 169 167 189 205 96 184 227 197 211 202 193 230 213 196 202 202 203 205 231 234 241 241 244 244 253 269 304 285 290 281 250 248
248 265 281 288 308 304 359 84 169 204 218 222 209 203 192 168 157 162 143 150 157 187 146 203 135 193 209 197 211 217 224 223 204 220 208 222 213 211 195 209 216 212 228 243 232 248 226 229 251 259 243 252 253 248
240 227 266 276 277 294 266 256 202 233 214 202 229 282 180 189 197 159 165 174 168 151 141 166 213 217 214 212 180 182 200 207 193 205 229 229 207 221 218 214 242 237 226 224 219 229 229 218 233 234 238 203 233 205
267 268 272 276 264 181 237 249 220 243 213 221 112 184 189 211 161 168 165 173 166 177 203 211 221 211 179 194 210 186 184 179 150 175 229 229 206 205 218 224 232 234 237 247 243 247 225 264 233 226 223 215 215 226
276 244 260 230 254 201 228 225 239 239 220 201 199 160 181 145 175 187 185 171 191 200 221 223 229 230 200 195 182 178 186 175 194 199 206 224 209 201 216 215 225 224 215 229 237 251 245 237 252 208 202 223 215 218
213 222 282 164 212 220 236 213 219 172 215 263 162 175 170 188 194 200 165 202 215 224 223 224 214 209 192 205 205 204 203 189 214 224 232 217 181 207 227 225 168 227 225 231 225 237 243 239 231 212 211 229 216 186
233 160 183 187 212 227 247 163 184 183 191 216 171 197 209 207 201 134 217 221 236 232 234 238 255 214 219 231 222 213 185 201 218 217 207 222 227 229 239 224 199 215 240 238 208 229 238 237 243 231 209 216 196 205
148 192 198 210 203 247 125 203 220 196 189 197 208 206 190 197 166 213 237 223 230 166 197 197 190 239 240 228 229 230 220 213 231 229 185 202 229 233 214 231 218 219 228 250 206 220 224 220 231 222 200 206 211 208
169 222 194 222 231 192 207 214 205 201 225 198 204 222 183 157 197 231 233 248 180 195 190 191 206 213 225 236 240 238 219 209 221 230 228 202 232 250 238 217 227 227 161 211 232 225 228 207 207 203 209 211 217 210
213 226 193 205 209 179 201 190 201 203 187 201 225 161 166 179 214 238 223 179 198 199 201 207 212 218 228 230 237 232 218 165 173 215 226 185 203 215 230 227 244 249 203 216 227 219 229 211 213 218 225 223 224 212
212 243 203 119 157 95 331 289 141 160 186 206 177 162 187 218 231 249 259 221 204 208 201 208 212 219 227 226 220 220 164 159 174 201 157 200 207 204 207 215 231 229 176 193 200 200 210 210 218 225 237 233 216 214
205 182 203 203 200 177 217 222 212 206 206 188 155 187 199 207 228 225 210 265 295 3 74 89 161 194 194 194 181 132 146 131 94 111 262 271 234 237 231 241 217 210 180 192 198 200 200 200 209 218 224 227 215 200
202 172 122 183 174 193 209 215 234 238 194 171 187 206 229 222 226 238 182 143 117 157 153 166 196 118 85 72 84 177 139 156 158 177 222 236 289 263 207 211 218 175 194 206 232 214 206 204 206 208 217 209 193 178
225 182 196 179 180 213 208 184 248 284 273 265 301 315 306 270 249 272 224 118 165 216 229 165 138 170 183 180 198 219 208 200 195 181 204 214 216 228 187 182 189 188 167 173 211 245 246 227 229 225 184 166 164 164
149 142 173 188 219 217 199 204 213 233 277 280 301 278 294 340 306 227 211 201 199 204 224 212 200 214 189 194 189 167 272 225 219 226 231 194 211 242 242 216 196 186 169 180 206 220 221 216 179 160 165 166 168 160
179 198 195 190 230 212 157 210 192 218 223 220 238 273 319 344 257 242 171 138 158 223 230 213 204 232 213 222 25 281 246 190 187 203 206 217 226 226 211 206 188 187 188 197 209 217 210 171 157 159 164 162 157 153
137 289 102 130 154 192 194 196 199 199 225 225 235 265 252 244 243 287 81 234 196 212 214 218 226 202 198 191 203 226 239 229 241 238 230 224 221 220 204 185 172 169 179 200 198 182 160 155 154 156 157 156 149 147